Location: Home
(42.5358°N, 72.7383°W)
Time: 13:22:27
(UTC-05:00)

Transit 2A Rocket - Pass Details

Date: 02 December 2021
Orbit: 584 x 918 km, 66.7° (Epoch: 22 January)

Event Time Altitude Azimuth Distance (km) Brightness Sun altitude
Rises 06:03:53 0° 153° (SSE) 3,270 9.1 -10.6°
Reaches altitude 10° 06:07:41 10° 125° (SE) 2,424 9.0 -9.9°
Maximum altitude 06:10:02 13° 100° (E) 2,279 8.9 -9.5°
Drops below altitude 10° 06:12:26 10° 76° (ENE) 2,512 8.6 -9.1°
Sets 06:16:31 0° 50° (NE) 3,510 8.8 -8.4°
